Location: Centerville
(32.8776°N, 96.6203°W)
Time: 10:10:19
(UTC+00:00)

Cosmos 2237 - Pass Details

Date: 25 October 2021
Orbit: 845 x 856 km, 70.8° (Epoch: 08 December)

Event Time Altitude Azimuth Distance (km) Brightness Sun altitude
Exits shadow 10:54:47 18° 336° (NNW) 2,003 5.9 -22.4°
Maximum altitude 10:59:12 79° 251° (WSW) 873 4.1 -21.5°
Drops below altitude 10° 11:04:52 10° 166° (SSE) 2,471 6.8 -20.3°
Sets 11:07:19 0° 165° (SSE) 3,402 7.6 -19.8°
